When you browse on this site, cookies collect data to enhance your experience and personalize the content and advertising you see.
Visit our Privacy Policy to learn more. By continuing to use the site, you agree to this use of cookies and data.
  • In Hungary
  • List of Countries
  • For 7 days
  • Water Temperature
  • Weather Map
  • News
  • Weather Widgets
  • user-avatar
    Login

    Hourly Weather El Mirage

    Today, 18 November, Monday

    Time Temperature Precipitation Wind Pressure Humidity
    00:00 +23°C° 0 mm 1 mps 731 mmHg 19%
    01:00 +21°C° 0 mm 2 mps 731 mmHg 19%
    02:00 +21°C° 0 mm 2 mps 731 mmHg 19%
    03:00 +20°C° 0 mm 2 mps 730 mmHg 20%
    04:00 +21°C° 0 mm 1 mps 730 mmHg 20%
    05:00 +20°C° 0 mm 1 mps 730 mmHg 20%
    06:00 +21°C° 0 mm 1 mps 730 mmHg 20%
    07:00 +21°C° 0 mm 1 mps 730 mmHg 20%
    08:00 +21°C° 0 mm 1 mps 731 mmHg 21%
    09:00 +23°C° 0 mm 1 mps 731 mmHg 18%
    10:00 +25°C° 0 mm 1 mps 731 mmHg 15%
    11:00 +27°C° 0 mm 1 mps 730 mmHg 13%
    12:00 +27°C° 0 mm 1 mps 730 mmHg 12%
    13:00 +28°C° 0 mm 1 mps 729 mmHg 12%
    14:00 +29°C° 0 mm 1 mps 729 mmHg 12%
    15:00 +28°C° 0 mm 1 mps 728 mmHg 14%
    16:00 +27°C° 0 mm 1 mps 728 mmHg 16%
    17:00 +26°C° 0 mm 1 mps 728 mmHg 18%
    18:00 +26°C° 0 mm 1 mps 728 mmHg 19%
    19:00 +23°C° 0 mm 0 mps 728 mmHg 19%
    20:00 +22°C° 0 mm 0 mps 729 mmHg 20%
    21:00 +22°C° 0 mm 0 mps 729 mmHg 20%
    22:00 +21°C° 0 mm 0 mps 728 mmHg 20%
    23:00 +21°C° 0 mm 0 mps 728 mmHg 20%

    Tomorrow, 19 November, Tuesday

    Time Temperature Precipitation Wind Pressure Humidity
    00:00 +21°C° 0 mm 0 mps 728 mmHg 21%
    01:00 +20°C° 0 mm 0 mps 728 mmHg 21%
    02:00 +20°C° 0 mm 0 mps 728 mmHg 21%
    03:00 +20°C° 0 mm 0 mps 728 mmHg 21%
    04:00 +23°C° 0 mm 1 mps 727 mmHg 20%
    05:00 +23°C° 0 mm 1 mps 727 mmHg 19%
    06:00 +23°C° 0 mm 1 mps 727 mmHg 20%
    07:00 +23°C° 0 mm 1 mps 727 mmHg 20%
    08:00 +23°C° 0 mm 1 mps 727 mmHg 20%
    09:00 +25°C° 0 mm 1 mps 727 mmHg 19%
    10:00 +26°C° 0 mm 1 mps 727 mmHg 17%
    11:00 +27°C° 0 mm 1 mps 727 mmHg 16%
    12:00 +27°C° 0 mm 2 mps 726 mmHg 16%
    13:00 +28°C° 0 mm 2 mps 725 mmHg 16%
    14:00 +28°C° 0 mm 2 mps 724 mmHg 17%
    15:00 +28°C° 0 mm 2 mps 723 mmHg 20%
    16:00 +27°C° 0 mm 1 mps 723 mmHg 24%
    17:00 +27°C° 0 mm 1 mps 722 mmHg 27%
    18:00 +26°C° 0.5 mm 2 mps 722 mmHg 34%
    19:00 +24°C° 0.5 mm 2 mps 722 mmHg 40%
    20:00 +22°C° 0.5 mm 3 mps 722 mmHg 47%
    21:00 +21°C° 1.4 mm 3 mps 722 mmHg 55%
    22:00 +20°C° 1.4 mm 3 mps 721 mmHg 63%
    23:00 +20°C° 1.4 mm 3 mps 721 mmHg 71%

    Day after tomorrow, 20 November, Wednesday

    Time Temperature Precipitation Wind Pressure Humidity
    00:00 +20°C° 2.2 mm 4 mps 721 mmHg 71%
    01:00 +20°C° 2.2 mm 4 mps 721 mmHg 70%
    02:00 +19°C° 2.2 mm 5 mps 720 mmHg 69%
    03:00 +18°C° 1.6 mm 7 mps 720 mmHg 71%
    04:00 +18°C° 1.6 mm 8 mps 720 mmHg 72%
    05:00 +17°C° 1.6 mm 9 mps 720 mmHg 74%
    06:00 +17°C° 1.4 mm 7 mps 720 mmHg 75%
    07:00 +16°C° 1.4 mm 5 mps 720 mmHg 77%
    08:00 +16°C° 1.4 mm 3 mps 721 mmHg 79%
    09:00 +16°C° 1.2 mm 5 mps 721 mmHg 73%
    10:00 +17°C° 1.2 mm 7 mps 722 mmHg 67%
    11:00 +20°C° 1.2 mm 8 mps 722 mmHg 61%
    12:00 +18°C° 1.3 mm 8 mps 721 mmHg 63%
    13:00 +18°C° 1.3 mm 8 mps 721 mmHg 65%
    14:00 +17°C° 1.3 mm 7 mps 720 mmHg 67%
    15:00 +16°C° 0.9 mm 8 mps 720 mmHg 65%
    16:00 +16°C° 0.9 mm 8 mps 720 mmHg 64%
    17:00 +15°C° 0.9 mm 9 mps 720 mmHg 62%
    18:00 +15°C° 0 mm 6 mps 721 mmHg 61%
    19:00 +15°C° 0 mm 4 mps 721 mmHg 59%
    20:00 +16°C° 0 mm 2 mps 722 mmHg 57%
    21:00 +16°C° 0 mm 2 mps 722 mmHg 57%
    22:00 +16°C° 0 mm 2 mps 723 mmHg 56%
    23:00 +16°C° 0 mm 2 mps 723 mmHg 56%

    21 November, Thursday

    Time Temperature Precipitation Wind Pressure Humidity
    00:00 +16°C° 0 mm 2 mps 723 mmHg 57%
    01:00 +14°C° 0 mm 3 mps 724 mmHg 58%
    02:00 +14°C° 0 mm 3 mps 724 mmHg 58%
    03:00 +15°C° 0 mm 2 mps 724 mmHg 59%
    04:00 +14°C° 0 mm 2 mps 724 mmHg 60%
    05:00 +14°C° 0 mm 2 mps 724 mmHg 61%
    06:00 +14°C° 0.1 mm 1 mps 725 mmHg 60%
    07:00 +15°C° 0.1 mm 1 mps 725 mmHg 59%
    08:00 +15°C° 0.1 mm 1 mps 725 mmHg 59%
    09:00 +15°C° 0.1 mm 1 mps 726 mmHg 57%
    10:00 +16°C° 0.1 mm 1 mps 726 mmHg 55%
    11:00 +18°C° 0.1 mm 1 mps 727 mmHg 53%
    12:00 +17°C° 0.2 mm 2 mps 726 mmHg 52%
    13:00 +17°C° 0.2 mm 4 mps 726 mmHg 52%
    14:00 +17°C° 0.2 mm 5 mps 726 mmHg 51%
    15:00 +17°C° 0 mm 4 mps 727 mmHg 52%
    16:00 +17°C° 0 mm 3 mps 727 mmHg 53%
    17:00 +17°C° 0 mm 2 mps 727 mmHg 54%
    18:00 +16°C° 0 mm 2 mps 728 mmHg 56%
    19:00 +16°C° 0 mm 1 mps 728 mmHg 59%
    20:00 +15°C° 0 mm 1 mps 729 mmHg 61%
    21:00 +15°C° 0 mm 1 mps 729 mmHg 61%
    22:00 +15°C° 0 mm 1 mps 730 mmHg 62%
    23:00 +15°C° 0 mm 1 mps 731 mmHg 62%

    22 November, Friday

    Time Temperature Precipitation Wind Pressure Humidity
    00:00 +15°C° 0 mm 1 mps 731 mmHg 62%
    01:00 +15°C° 0 mm 1 mps 731 mmHg 63%
    02:00 +14°C° 0 mm 1 mps 731 mmHg 63%
    03:00 +14°C° 0 mm 1 mps 731 mmHg 63%
    04:00 +14°C° 0 mm 1 mps 732 mmHg 62%
    05:00 +14°C° 0 mm 2 mps 732 mmHg 62%
    06:00 +14°C° 0 mm 2 mps 732 mmHg 61%
    07:00 +15°C° 0 mm 2 mps 733 mmHg 61%
    08:00 +15°C° 0 mm 2 mps 733 mmHg 60%
    09:00 +16°C° 0 mm 2 mps 734 mmHg 56%
    10:00 +17°C° 0 mm 2 mps 734 mmHg 51%
    11:00 +18°C° 0 mm 2 mps 734 mmHg 46%
    12:00 +19°C° 0 mm 2 mps 733 mmHg 44%
    13:00 +20°C° 0 mm 1 mps 733 mmHg 41%
    14:00 +21°C° 0 mm 1 mps 732 mmHg 38%
    15:00 +21°C° 0 mm 1 mps 732 mmHg 39%
    16:00 +21°C° 0 mm 1 mps 732 mmHg 40%
    17:00 +18°C° 0 mm 0 mps 732 mmHg 42%
    18:00 +20°C° 0 mm 1 mps 733 mmHg 43%
    19:00 +19°C° 0 mm 1 mps 733 mmHg 44%
    20:00 +19°C° 0 mm 1 mps 734 mmHg 45%
    21:00 +19°C° 0 mm 1 mps 734 mmHg 46%
    22:00 +17°C° 0 mm 2 mps 734 mmHg 47%
    23:00 +17°C° 0 mm 2 mps 734 mmHg 48%

    23 November, Saturday

    Time Temperature Precipitation Wind Pressure Humidity
    00:00 +17°C° 0 mm 2 mps 734 mmHg 47%
    01:00 +16°C° 0 mm 3 mps 734 mmHg 47%
    02:00 +16°C° 0 mm 3 mps 734 mmHg 46%
    03:00 +16°C° 0 mm 3 mps 734 mmHg 46%
    04:00 +14°C° 0 mm 3 mps 733 mmHg 45%
    05:00 +14°C° 0 mm 3 mps 733 mmHg 45%
    06:00 +14°C° 0 mm 3 mps 734 mmHg 45%
    07:00 +14°C° 0 mm 3 mps 734 mmHg 45%
    08:00 +15°C° 0 mm 2 mps 734 mmHg 44%
    09:00 +17°C° 0 mm 2 mps 734 mmHg 40%
    10:00 +18°C° 0 mm 3 mps 734 mmHg 36%
    11:00 +19°C° 0 mm 3 mps 734 mmHg 32%
    12:00 +20°C° 0 mm 2 mps 733 mmHg 30%
    13:00 +22°C° 0 mm 1 mps 732 mmHg 28%
    14:00 +22°C° 0 mm 1 mps 731 mmHg 26%
    15:00 +22°C° 0 mm 1 mps 731 mmHg 29%
    16:00 +19°C° 0 mm 0 mps 731 mmHg 31%
    17:00 +19°C° 0 mm 0 mps 731 mmHg 34%
    18:00 +18°C° 0 mm 0 mps 731 mmHg 35%
    19:00 +20°C° 0 mm 1 mps 731 mmHg 36%
    20:00 +19°C° 0 mm 1 mps 732 mmHg 37%
    21:00 +19°C° 0 mm 1 mps 732 mmHg 38%
    22:00 +19°C° 0 mm 1 mps 732 mmHg 38%
    23:00 +18°C° 0 mm 1 mps 732 mmHg 39%
    Show more